Regional Weather Roundup
Issued by NWS Mt. Holly, NJ

Home | Current Version | Previous Version | Text Only | Print | Product List | Glossary On
Versions: 1 2 3 4 5 6 7 8 9 10 11 12 13 14 15 16 17 18 19 20 21 22 23 24 25 26 27 28 29 30 31 32 33 34 35 36 37 38 39 40 41 42 43 44 45 46 47 48 49 50
000
ASUS41 KPHI 291512
RWRPHI

REGIONAL WEATHER ROUNDUP
NATIONAL WEATHER SERVICE MOUNT HOLLY NJ
1100 AM EDT FRI JUL 29 2016

NOTE:  "FAIR" INDICATES FEW OR NO CLOUDS BELOW 12,000 FEET WITH NO
SIGNIFICANT WEATHER AND/OR OBSTRUCTIONS TO VISIBILITY.

 * = STATION DOES NOT REPORT PRECIPITATION (E.G. RAIN, SNOW, ETC.)
        OR FOG.

NJZ015>026-291600-
SOUTHERN NEW JERSEY

CITY           SKY/WX    TMP DP  RH WIND       PRES   REMARKS
POMONA         PTSUNNY   78  71  79 N15       29.81R
WILDWOOD*        N/A    N/A N/A N/A MISG        N/A
MILLVILLE      MOSUNNY   80  70  71 N13       29.83S
WRIGHTSTOWN    PTSUNNY   76  71  85 N13G18    29.81S
MOUNT HOLLY    PTSUNNY   78  71  79 N9        29.84S
TRENTON        PTSUNNY   77  69  76 N8        29.85S

$$
NJZ001>014-291600-
NORTHERN NEW JERSEY

CITY           SKY/WX    TMP DP  RH WIND       PRES   REMARKS
SUSSEX         PTSUNNY   79  69  71 VRB5      29.89S
ANDOVER*         N/A     77  68  73 VRB3      29.89S
MORRISTOWN     PTSUNNY   73  66  78 NE9       29.87F
NEWARK         PTSUNNY   75  69  81 N14       29.85S
TETERBORO      PTSUNNY   76  68  76 N8        29.85S
CALDWELL       PTSUNNY   74  68  81 NE5       29.87F
SOMERVILLE     PTSUNNY   80  69  69 NE7       29.84F
ALLAIRE*       CLOUDY    72  70  93 N10       29.85S
TOMS RIVER*    CLOUDY    75  71  87 N12       29.82F

$$
PAZ043-044-047-054-055-060>062-066>071-291600-
EASTERN PENNSYLVANIA

CITY           SKY/WX    TMP DP  RH WIND       PRES   REMARKS
PHILADELPHIA   MOSUNNY   80  69  69 N15G22    29.85R
NORTH PHILA    MOSUNNY   81  71  71 N13       29.86S
BLUE BELL*     MOSUNNY   77  70  78 N8        29.86S
DOYLESTOWN     MOSUNNY   76  71  85 N9        29.87S
QUAKERTOWN*    PTSUNNY   77  70  78 NE6       29.89F
PERKASIE*      CLOUDY    75  68  78 NE8       29.89S
POTTSTOWN      CLOUDY    76  69  79 N6        29.89S
LANCASTER      PTSUNNY   76  68  76 N7        29.88S
COATESVILLE    CLOUDY    77  70  78 NE6       29.90S
READING        PTSUNNY   80  68  66 N8        29.87S
ALLENTOWN      PTSUNNY   79  68  69 N9        29.88S
MOUNT POCONO   MOSUNNY   74  65  73 NE8       29.95R
HAZLETON       CLOUDY    72  68  88 NW5       29.97S
LEHIGHTON      FAIR      77  68  73 N5        29.90S
WILKES BARRE   MOSUNNY   79  68  69 VRB6      29.91F

$$
DEZALL-MDZ008-012-015-019-020-291600-
DELAWARE AND EASTERN MARYLAND

CITY           SKY/WX    TMP DP  RH WIND       PRES   REMARKS
WILMINGTON     MOSUNNY   80  69  69 N9        29.86R
DOVER          MOSUNNY   79  79 100 N14       29.83S
GEORGETOWN     CLOUDY    78  72  81 N10       29.85R
EASTON         PTSUNNY   81  75  83 N6        29.90R
ABERDEEN       MOSUNNY   81  70  69 N7        29.86R
PATUXENT       PTSUNNY   80  72  76 NW10      29.87R
OCEAN CITY       N/A    N/A N/A N/A MISG      29.83R
WALLOPS ISLAND FAIR      86  77  74 NW7       29.84R HX  97
CAMBRIDGE      CLOUDY    79  72  78 NW8       29.86R
SALISBURY      CLOUDY    79  73  83 MISG      29.84R

$$
PAZ001-021-NYZ056-072-MDZ011-DCZ001-291600-
OTHER NEARBY LOCATIONS

CITY           SKY/WX    TMP DP  RH WIND       PRES   REMARKS
HARRISBURG     MOSUNNY   81  71  71 N7        29.87S
STATE COLLEGE  MOSUNNY   77  68  73 VRB3      29.95F
WILLIAMSPORT   SUNNY     83  62  49 S5        29.88F
BINGHAMTON     SUNNY     79  61  53 N7        29.95S
NEW YORK CITY  CLOUDY    73  68  84 NE8       29.89R
BALTIMORE      MOSUNNY   82  69  64 NW8       29.87S
WASHINGTON DC  PTSUNNY   80  69  69 N12       29.89S

$$



USA.gov is the U.S. government's official web portal to all federal, state and local government web resources and services.